Location: Beaufort
(49.7761°N, 2.6681°E)
Time: 12:46:45
(UTC+00:00)

Daily predictions for brighter satellites

Satellite Brightness Start Highest point End
(mag) Time Altitude Azimuth Time Altitude Azimuth Time Altitude Azimuth
NOSS 3-1 (C) 4.1 17:03:15 10° NW 17:10:34 83° NE 17:19:11 10° SE
NOAA 11 4.2 17:05:11 10° SSE 17:10:40 75° ENE 17:16:11 10° NNW
AQUARIUS 4.2 17:06:58 10° SSE 17:11:28 83° ENE 17:16:00 10° NNW
COSMO-SKYMED 1 3.7 17:09:34 10° NE 17:13:09 25° E 17:16:44 10° SSE
BREEZE-M DEB (TANK) 1.6 17:12:01 10° W 17:14:32 89° SSW 17:16:49 10° E
Cosmos 1937 Rocket 4.4 17:11:49 10° SSE 17:16:25 31° E 17:21:03 10° NE
Aureole 3 2.6 17:13:21 10° N 17:16:28 59° ENE 17:19:24 10° SSE
Okean 1-7 Rocket 3.6 17:13:50 10° S 17:18:24 81° E 17:23:00 10° NNE
USA 290 3.3 17:17:41 10° N 17:20:24 25° ENE 17:23:05 10° ESE
NOSS 2-1 (C) 3.3 17:20:38 10° SSW 17:23:51 47° SE 17:27:13 10° NE
Cosmos 1833 Rocket 2.9 17:18:44 10° NNW 17:24:09 47° NE 17:29:34 10° SE
H-2A R/B 2.8 17:24:48 10° ESE 17:29:11 30° ENE 17:33:42 10° N
NOSS 2-1 (D) 3.1 17:26:31 10° SSW 17:29:46 55° SE 17:33:06 11° NE
Meteor 1-21 Rocket 4.2 17:24:33 10° S 17:30:01 66° E 17:35:36 10° NNE
Cosmos 2344 4.3 17:21:24 10° NW 17:30:17 71° NE 17:42:39 10° SE
H-2A R/B 2.0 17:26:10 10° NNE 17:30:36 81° ESE 17:34:53 10° SSW
Cosmos 1939 Rocket 2.8 17:27:11 10° SSE 17:31:14 67° ENE 17:35:14 10° N
Helios 1A Rocket 4.2 17:28:36 10° ESE 17:31:45 21° ENE 17:34:54 10° NNE
USA 229 DEB 3.9 17:24:49 10° NW 17:32:06 82° NE 17:39:47 10° SE
USA 229 3.9 17:24:55 10° NW 17:32:12 82° NE 17:39:53 10° SE
CZ-3B R/B 1.6 17:31:22 10° WNW 17:33:43 84° NNE 17:39:49 10° ESE
Cosmos 44 3.4 17:28:58 10° SW 17:33:50 84° SE 17:39:02 10° NE
Cosmos 1602 Rocket 3.8 17:30:02 10° SSE 17:34:13 47° E 17:38:27 10° NNE
SeaSat 1 3.4 17:29:46 10° NNE 17:34:29 46° NW 17:39:11 10° WSW
Cosmos 2026 Rocket 4.3 17:29:50 10° SSE 17:35:35 43° E 17:41:26 10° NNE
Feng Yun 1-1 Rocket 4.2 17:31:12 10° SSE 17:36:38 66° ENE 17:42:16 10° N
Cosmos 2112 Rocket 4.1 17:31:42 10° NNW 17:36:58 81° WSW 17:42:09 10° SSE
SJ 16-02 2.0 17:32:49 10° SW 17:37:09 58° WNW 17:41:30 10° NNE
Cosmos 990 Rocket 3.9 17:35:27 10° SSW 17:40:37 73° ESE 17:45:48 10° NNE
YAOGAN 1 3.2 17:36:48 10° SE 17:40:39 32° ENE 17:44:31 10° N
Cosmos 1689 Rocket 4.0 17:41:34 13° ESE 17:41:34 13° ESE 17:42:35 10° SE
Cosmos 1553 Rocket 4.5 17:35:10 10° N 17:41:07 38° ENE 17:46:58 10° SE
Aureole 3 Rocket 2.8 17:39:06 10° N 17:42:11 42° ENE 17:45:53 10° SSE
Cosmos 1844 Rocket 3.3 17:36:45 10° SW 17:42:20 59° NW 17:47:56 10° NNE
H-2A R/B 4.1 17:38:46 10° S 17:42:42 40° W 17:46:49 10° NNW
COSMOS 2406 3.2 17:37:49 10° NNW 17:43:38 70° ENE 17:49:22 10° SE
Cosmos 2082 Rocket 2.7 17:38:32 10° NNW 17:43:55 40° NE 17:49:15 10° ESE
Cosmos 1818 4.3 17:38:43 10° WSW 17:44:00 51° NW 17:49:21 10° NE
Cosmos 1844 4.1 17:40:42 10° SW 17:46:21 67° WNW 17:52:08 10° NNE
NOSS 3-1 (A) 4.1 17:40:21 10° NW 17:47:44 87° NE 17:56:23 10° SE
Cosmos 1703 3.1 17:44:20 10° S 17:48:11 76° E 17:52:05 10° NNE
X-37B 2.2 17:45:51 10° WSW 17:48:43 30° S 17:51:34 10° SE
Cosmos 1825 Rocket 4.4 17:45:33 10° SSE 17:49:22 29° E 17:53:12 10° NNE
IRS-1C Rocket 4.1 17:44:58 10° SSE 17:50:08 63° ENE 17:55:21 10° N
Cosmos 1812 Rocket 3.5 17:46:59 10° N 17:51:24 81° E 17:55:44 10° SSE
ISS -3.6 17:48:25 10° W 17:51:47 61° N 17:53:50 21° ENE
ATLAS 2AS CENTAUR R/B 4.2 17:48:16 10° WNW 17:55:00 30° N 18:00:54 12° NE
Okean O Rocket 3.0 17:51:51 10° S 17:56:04 43° W 18:00:18 10° NNW
ATLAS 5 CENTAUR R/B 3.7 17:54:00 10° WNW 17:57:15 19° NNW 18:00:53 10° NNE
Iridium 4 Rocket 3.5 17:54:19 10° N 17:59:43 63° E 18:04:37 10° SSE
CZ-4 R/B 1.4 17:56:19 10° SSE 18:00:14 53° ENE 18:04:06 10° N
ERS-2 2.6 17:58:38 14° NE 18:01:27 36° E 18:04:50 10° SSE
SKYMED 2 3.5 17:57:08 10° NNE 18:01:29 71° ESE 18:05:49 10° S
Cosmos 2195 Rocket 4.5 17:56:49 10° S 18:03:08 78° E 18:09:29 10° NNE
CSL-04 Rocket 4.1 17:59:42 10° SE 18:04:46 41° ENE 18:09:54 10° N
CZ-4C R/B 3.9 18:02:33 10° NW 18:07:29 25° N 18:11:46 14° NE
S3M 4.3 18:01:56 10° N 18:07:41 41° ENE 18:13:25 10° SE
Okean-O 2.6 18:03:23 10° SSE 18:07:44 59° ENE 18:12:07 10° N
USA 234 3.8 18:05:52 18° ENE 18:10:33 48° N 18:16:46 10° WNW
Ariane Rocket 4.4 18:11:25 18° NE 18:11:25 18° NE 18:14:21 10° NNE
Cosmos 1428 Rocket 4.4 18:04:51 10° S 18:11:08 75° E 18:17:27 10° NNE
Cosmos 1340 2.8 18:07:59 10° SSW 18:11:43 74° WNW 18:15:30 10° N
Cosmos 1346 Rocket 3.0 18:08:29 10° S 18:12:15 45° E 18:15:11 16° NNE
Cosmos 2278 Rocket 2.3 18:07:01 10° S 18:12:31 55° ESE 18:17:12 15° NE
Cosmos 858 Rocket 4.5 18:09:16 10° SSW 18:14:33 85° ESE 18:19:52 10° NNE
Cosmos 1953 Rocket 4.1 18:11:50 10° SSE 18:15:47 35° E 18:17:57 22° NE
CZ-2C R/B 3.4 18:10:49 10° S 18:16:20 77° WSW 18:22:07 10° NNW
SAR-Lupe-4 3.7 18:17:51 27° NE 18:19:26 47° E 18:22:53 10° S
Cosmos 2292 Rocket 4.0 18:16:20 10° SSE 18:20:30 33° E 18:20:41 33° E
Cosmos 405 3.7 18:18:08 10° NNW 18:21:37 56° W 18:25:04 10° S
COSMOS 2455 4.4 18:16:46 10° W 18:21:58 29° NW 18:27:11 10° NNE
Cosmos 44 Rocket 4.2 18:18:27 10° S 18:22:40 29° ESE 18:23:19 28° E
NOSS 2-1 (E) 3.6 18:21:46 10° WSW 18:25:00 50° NW 18:26:46 25° NNE
TELKOM 3 3.9 18:26:50 10° W 18:28:35 42° WSW 18:28:35 42° WSW
ARGOS 3.1 18:24:32 10° SSE 18:29:51 65° ENE 18:35:12 10° N
Cosmos 1869 3.5 18:26:07 10° N 18:29:52 45° ENE 18:30:10 44° E
Meteor 2-19 Rocket 4.4 18:25:50 10° S 18:31:59 83° E 18:38:11 10° NNE
PSLV R/B 3.8 18:28:32 10° NNE 18:32:47 76° ESE 18:36:59 10° S
SAR-Lupe-1 3.9 18:34:05 34° NNE 18:35:31 74° ESE 18:39:05 10° S
Cosmos 1898 Rocket 4.3 18:30:31 10° SW 18:35:37 51° WNW 18:40:43 10° NNE
Cosmos 372 Rocket 3.9 18:31:00 10° SSW 18:36:12 73° ESE 18:39:58 19° NNE
CZ-4B R/B 2.9 18:33:18 10° N 18:36:22 36° WNW 18:39:22 10° SW
Cosmos 468 4.4 18:31:47 10° NNW 18:37:02 67° ENE 18:41:13 16° SE
CZ-2C R/B 3.1 18:33:46 17° NNE 18:37:45 41° E 18:43:01 10° SSE
Cosmos 494 Rocket 4.1 18:35:56 10° NNW 18:40:59 51° ENE 18:42:29 39° ESE
MOS 1 Rocket 3.8 18:40:04 10° N 18:44:15 54° WNW 18:48:28 10° SSW
Cosmos 2150 Rocket 4.2 18:40:34 10° S 18:45:28 46° ESE 18:45:59 44° E
Cosmos 1048 Rocket 3.8 18:40:53 10° NNW 18:46:03 77° ENE 18:49:36 20° SSE
Cosmos-2242 3.8 18:42:03 10° NNW 18:46:15 52° W 18:50:26 10° S
COSMO-SKYMED 1 3.9 18:45:23 10° N 18:49:27 40° WNW 18:53:31 10° SW
SL-08 RB Rocket 3.5 18:59:18 30° SSE 19:01:31 87° ENE 19:06:02 10° NNW
CSL-04 Debris 4.4 18:58:22 10° S 19:03:44 71° WSW 19:09:09 10° NNW
Cosmos 2221 3.9 19:01:33 10° N 19:03:42 27° N 19:03:42 27° N
Helios 1A Rocket 3.9 19:02:37 10° S 19:06:37 47° W 19:10:39 10° NNW
Cosmos 389 Rocket 4.1 19:04:11 10° NNW 19:05:55 27° NNW 19:05:55 27° NNW
Cosmos 1833 Rocket 4.3 19:02:56 10° NW 19:07:57 34° WSW 19:12:58 10° S
H-2A R/B 3.1 19:03:34 10° S 19:08:26 46° W 19:13:28 10° NNW
Cosmos 1125 Rocket 4.1 19:05:01 10° S 19:08:41 42° SSE 19:08:41 42° SSE
Cosmos 1809 Rocket 4.3 19:04:33 10° S 19:10:40 77° E 19:16:51 10° NNE
Cosmos 2298 Rocket 3.9 19:07:25 10° SSW 19:12:44 81° ESE 19:13:35 63° NE
Cosmos 2266 Rocket 3.8 19:08:38 10° S 19:14:50 75° E 19:20:58 10° NNE
SJ 16-02 4.3 19:15:53 10° NW 19:16:44 10° NW 19:17:35 10° NNW
YAOGAN 1 4.4 19:12:54 10° SSW 19:16:45 31° W 19:20:38 10° NNW
NOSS 2-2 (C) 4.3 19:13:35 10° NW 19:18:50 83° NE 19:20:07 59° SE
In-Cosmos 22 Rocket 4.2 19:18:46 10° SSW 19:24:33 83° WNW 19:29:35 14° N
X-37B 3.7 19:23:08 10° WSW 19:23:54 12° SW 19:23:54 12° SW
Cosmos 2082 Rocket 3.3 19:22:41 10° NW 19:28:05 43° WSW 19:33:25 10° S
ISS -1.4 19:25:22 10° WNW 19:26:49 23° WNW 19:26:49 23° WNW
Cosmos 1241 Rocket 4.4 19:26:02 10° SSW 19:32:32 84° SE 19:33:16 72° NE
CZ-4 R/B 4.3 19:33:01 10° SW 19:35:33 16° W 19:38:06 10° NW
MetOp-A 4.2 19:37:47 77° WNW 19:37:47 77° WNW 19:42:57 10° NNW
Meteor 2-21 4.5 19:34:22 10° SSW 19:40:28 78° W 19:46:40 10° N
ATLAS 5 CENTAUR R/B 3.9 19:40:02 10° NNW 19:42:29 18° N 19:42:29 18° N
Cosmos 2315 Rocket 4.0 19:39:16 10° NNW 19:45:31 79° W 19:46:33 63° SSW
ATLAS 2AS CENTAUR R/B 3.8 19:41:21 10° NW 19:48:13 33° NNE 19:48:21 33° NNE
Ariane Rocket 4.3 19:51:36 33° NNW 19:51:36 33° NNW 19:54:24 10° NNW
IRS-1A Rocket 4.5 19:51:16 71° NW 19:51:16 71° NW 19:56:32 10° NNW
USA 234 3.4 19:53:13 59° N 19:53:13 59° N 19:59:27 10° WNW
Cosmos 2278 Rocket 3.7 19:51:49 10° WSW 19:56:54 33° NW 19:59:05 25° N
CZ-4C R/B 3.7 19:51:51 10° NW 19:56:57 35° N 19:56:57 35° N
USA 281 4.1 20:04:50 36° N 20:04:50 36° N 20:08:52 10° NNW
CZ-2C R/B 4.0 20:15:09 23° NNW 20:18:00 38° WNW 20:23:07 10° SW
